| time (UTC) | temp F | wind direction | speed MPH | gust MPH | rain 1hr in | rain 24hr in | rain mn in | humidity % | barometer mb |
| 20260502182004 | 56 | 130 | 2.0 | 7.0 | 0.00 | 0.00 | 0.00 | 32 | 1015.0 |
| 20260502181003 | 53 | 274 | 3.0 | 12.0 | 0.00 | 0.00 | 0.00 | 32 | 1015.3 |
| 20260502164004 | 52 | 181 | 2.0 | 10.0 | 0.00 | 0.00 | 0.00 | 36 | 1016.2 |
| 20260502163004 | 50 | 302 | 3.0 | 9.0 | 0.00 | 0.00 | 0.00 | 35 | 1016.8 |
| 20260502162003 | 51 | 283 | 4.0 | 10.0 | 0.00 | 0.00 | 0.00 | 36 | 1016.4 |
| 20260502161003 | 51 | 306 | 6.0 | 13.0 | 0.00 | 0.00 | 0.00 | 35 | 1016.9 |
| 20260502152005 | 48 | 346 | 3.0 | 12.0 | 0.00 | 0.00 | 0.00 | 39 | 1017.2 |
| 20260502151004 | 48 | 275 | 6.0 | 10.0 | 0.00 | 0.00 | 0.00 | 40 | 1017.4 |
| 20260502122004 | 28 | 299 | 1.0 | 3.0 | 0.00 | 0.00 | 0.00 | 87 | 1018.8 |
| 20260502121004 | 26 | 281 | 1.0 | 2.0 | 0.00 | 0.00 | 0.00 | 93 | 1018.8 |
| 20260502115004 | 23 | 261 | 1.0 | 2.0 | 0.00 | 0.00 | 0.00 | 95 | 1018.8 |
| 20260502114004 | 22 | 298 | 1.0 | 2.0 | 0.00 | 0.00 | 0.00 | 95 | 1018.7 |
| 20260502113004 | 21 | 305 | 1.0 | 2.0 | 0.00 | 0.00 | 0.00 | 96 | 1018.7 |
| 20260502112004 | 21 | 320 | 1.0 | 2.0 | 0.00 | 0.00 | 0.00 | 96 | 1018.7 |
| 20260502111004 | 21 | 338 | 1.0 | 2.0 | 0.00 | 0.00 | 0.00 | 96 | 1018.6 |
| 20260502104004 | 20 | 320 | 1.0 | 2.0 | 0.00 | 0.00 | 0.00 | 96 | 1018.7 |
| 20260502103004 | 20 | 308 | 1.0 | 2.0 | 0.00 | 0.00 | 0.00 | 96 | 1018.8 |
| 20260502102003 | 20 | 356 | 1.0 | 2.0 | 0.00 | 0.00 | 0.00 | 96 | 1018.6 |
| 20260502101004 | 21 | 342 | 1.0 | 1.0 | 0.00 | 0.00 | 0.00 | 96 | 1018.5 |
| 20260502091004 | 21 | 331 | 0.0 | 1.0 | 0.00 | 0.00 | 0.00 | 95 | 1018.5 |
| 20260502071003 | 24 | 299 | 1.0 | 1.0 | 0.00 | 0.00 | 0.00 | 93 | 1018.3 |
| 20260502070004 | 24 | 323 | 1.0 | 1.0 | 0.00 | 0.00 | 0.00 | 93 | 1018.5 |
| 20260502065004 | 24 | 305 | 0.0 | 1.0 | 0.00 | 0.00 | 0.00 | 94 | 1018.6 |
| 20260502064004 | 24 | 0 | 0.0 | 1.0 | 0.00 | 0.00 | 0.00 | 93 | 1018.7 |
| 20260502063004 | 24 | 326 | 0.0 | 1.0 | 0.00 | 0.00 | 0.00 | 93 | 1018.7 |
| 20260502062004 | 24 | 330 | 1.0 | 2.0 | 0.00 | 0.00 | 0.00 | 93 | 1018.7 |
| 20260502061004 | 24 | 355 | 0.0 | 1.0 | 0.00 | 0.00 | 0.00 | 93 | 1018.9 |
| 20260502060003 | 25 | 332 | 1.0 | 1.0 | 0.00 | 0.00 | 0.00 | 93 | 1018.6 |
| 20260502055004 | 25 | 345 | 0.0 | 1.0 | 0.00 | 0.00 | 0.00 | 94 | 1018.6 |
| 20260502054004 | 25 | 319 | 0.0 | 1.0 | 0.00 | 0.00 | 0.00 | 93 | 1018.6 |
| 20260502053004 | 25 | 336 | 0.0 | 2.0 | 0.00 | 0.00 | 0.00 | 93 | 1018.6 |
| 20260502052004 | 26 | 340 | 1.0 | 1.0 | 0.00 | 0.00 | 0.00 | 93 | 1018.5 |
| 20260502050003 | 26 | 341 | 1.0 | 2.0 | 0.00 | 0.00 | 0.00 | 92 | 1018.5 |
| 20260502045003 | 26 | 308 | 1.0 | 2.0 | 0.00 | 0.00 | 0.00 | 91 | 1018.4 |
| 20260502044004 | 26 | 316 | 0.0 | 1.0 | 0.00 | 0.00 | 0.00 | 91 | 1018.6 |
| 20260502043004 | 26 | 299 | 1.0 | 1.0 | 0.00 | 0.00 | 0.00 | 91 | 1018.3 |
| 20260502042004 | 26 | 296 | 1.0 | 1.0 | 0.00 | 0.00 | 0.00 | 91 | 1018.6 |
| 20260502041003 | 26 | 315 | 0.0 | 1.0 | 0.00 | 0.00 | 0.00 | 91 | 1018.3 |
| 20260502040004 | 26 | 346 | 1.0 | 2.0 | 0.00 | 0.00 | 0.00 | 90 | 1018.6 |
| 20260502035003 | 27 | 341 | 0.0 | 1.0 | 0.00 | 0.00 | 0.00 | 90 | 1018.5 |
| 20260502034004 | 27 | 309 | 0.0 | 1.0 | 0.00 | 0.00 | 0.00 | 89 | 1018.4 |
| 20260502032003 | 27 | 327 | 1.0 | 1.0 | 0.00 | 0.00 | 0.00 | 88 | 1018.6 |
| 20260502031004 | 27 | 312 | 0.0 | 1.0 | 0.00 | 0.00 | 0.00 | 86 | 1018.5 |
| 20260502025003 | 28 | 318 | 0.0 | 1.0 | 0.00 | 0.00 | 0.00 | 84 | 1018.4 |
| 20260502024003 | 29 | 358 | 0.0 | 1.0 | 0.00 | 0.00 | 0.00 | 83 | 1018.5 |
| 20260502023004 | 29 | 332 | 1.0 | 1.0 | 0.00 | 0.00 | 0.00 | 82 | 1018.3 |
| 20260502022004 | 30 | 358 | 0.0 | 1.0 | 0.00 | 0.00 | 0.00 | 82 | 1018.5 |
| 20260502021003 | 31 | 339 | 0.0 | 1.0 | 0.00 | 0.00 | 0.00 | 82 | 1018.3 |
| 20260502020004 | 32 | 345 | 0.0 | 1.0 | 0.00 | 0.00 | 0.00 | 81 | 1018.3 |
| 20260502015003 | 33 | 345 | 0.0 | 0.0 | 0.00 | 0.00 | 0.00 | 78 | 1018.2 |
| 20260502014004 | 34 | 331 | 0.0 | 1.0 | 0.00 | 0.00 | 0.00 | 78 | 1018.3 |
| 20260502013004 | 35 | 319 | 0.0 | 1.0 | 0.00 | 0.00 | 0.00 | 76 | 1018.2 |
| 20260502012003 | 36 | 3 | 0.0 | 2.0 | 0.00 | 0.00 | 0.00 | 74 | 1018.2 |
| 20260502011003 | 37 | 22 | 0.0 | 0.0 | 0.00 | 0.00 | 0.00 | 69 | 1018.0 |
| 20260502005004 | 38 | 32 | 0.0 | 1.0 | 0.00 | 0.00 | 0.00 | 66 | 1018.0 |
| 20260502004004 | 39 | 45 | 1.0 | 1.0 | 0.00 | 0.00 | 0.00 | 64 | 1018.0 |
| 20260502003003 | 40 | 63 | 1.0 | 2.0 | 0.00 | 0.00 | 0.00 | 62 | 1018.2 |
| 20260502001003 | 41 | 341 | 1.0 | 2.0 | 0.00 | 0.00 | 0.00 | 54 | 1018.0 |
| 20260502000003 | 41 | 59 | 1.0 | 2.0 | 0.00 | 0.00 | 0.00 | 55 | 1017.9 |
| 20260501235004 | 41 | 12 | 2.0 | 6.0 | 0.00 | 0.00 | 0.00 | 52 | 1017.8 |
| 20260501233004 | 41 | 348 | 1.0 | 3.0 | 0.00 | 0.00 | 0.00 | 53 | 1017.8 |
| 20260501232003 | 41 | 337 | 1.0 | 6.0 | 0.00 | 0.00 | 0.00 | 51 | 1017.8 |
| 20260501231004 | 42 | 332 | 2.0 | 3.0 | 0.00 | 0.00 | 0.00 | 51 | 1017.9 |
| 20260501230003 | 42 | 16 | 1.0 | 3.0 | 0.00 | 0.00 | 0.00 | 51 | 1017.9 |
| 20260501225004 | 42 | 0 | 2.0 | 5.0 | 0.00 | 0.00 | 0.00 | 50 | 1017.9 |
| 20260501224004 | 41 | 356 | 2.0 | 5.0 | 0.00 | 0.00 | 0.00 | 49 | 1017.9 |
| 20260501222003 | 42 | 36 | 2.0 | 7.0 | 0.00 | 0.00 | 0.00 | 52 | 1018.0 |
| 20260501221004 | 41 | 19 | 3.0 | 6.0 | 0.00 | 0.00 | 0.00 | 51 | 1017.9 |
| 20260501214004 | 41 | 331 | 3.0 | 5.0 | 0.00 | 0.01 | 0.00 | 50 | 1017.7 |
| 20260501213004 | 41 | 317 | 3.0 | 7.0 | 0.00 | 0.01 | 0.00 | 50 | 1017.7 |
| 20260501212004 | 41 | 21 | 2.0 | 7.0 | 0.00 | 0.01 | 0.00 | 51 | 1017.8 |
| 20260501211004 | 41 | 324 | 3.0 | 8.0 | 0.00 | 0.01 | 0.00 | 51 | 1017.7 |
| 20260501205003 | 41 | 337 | 2.0 | 6.0 | 0.00 | 0.04 | 0.00 | 52 | 1017.5 |
| 20260501204004 | 41 | 351 | 2.0 | 6.0 | 0.00 | 0.04 | 0.00 | 53 | 1017.6 |
| 20260501203003 | 42 | 354 | 2.0 | 7.0 | 0.00 | 0.04 | 0.00 | 52 | 1017.7 |
| 20260501202004 | 41 | 298 | 4.0 | 10.0 | 0.00 | 0.04 | 0.00 | 52 | 1017.5 |
| 20260501201004 | 42 | 19 | 3.0 | 8.0 | 0.00 | 0.04 | 0.00 | 51 | 1017.5 |
| 20260501200004 | 43 | 349 | 1.0 | 9.0 | 0.00 | 0.04 | 0.00 | 53 | 1017.4 |
| 20260501195004 | 42 | 53 | 5.0 | 12.0 | 0.00 | 0.04 | 0.00 | 52 | 1017.5 |
| 20260501194004 | 41 | 63 | 3.0 | 6.0 | 0.00 | 0.04 | 0.00 | 54 | 1017.4 |
| 20260501193003 | 41 | 47 | 2.0 | 10.0 | 0.00 | 0.04 | 0.00 | 56 | 1017.5 |
| 20260501192003 | 40 | 329 | 4.0 | 9.0 | 0.00 | 0.04 | 0.00 | 57 | 1017.5 |
| 20260501191003 | 40 | 6 | 4.0 | 8.0 | 0.00 | 0.04 | 0.00 | 58 | 1017.3 |
| 20260501185004 | 41 | 13 | 3.0 | 6.0 | 0.00 | 0.07 | 0.00 | 64 | 1017.2 |
| 20260501184004 | 40 | 27 | 2.0 | 6.0 | 0.00 | 0.07 | 0.00 | 66 | 1017.2 |
| 20260501183004 | 39 | 81 | 2.0 | 5.0 | 0.00 | 0.07 | 0.00 | 69 | 1017.1 |